TimeEDT,TemperatureF,Dew PointF,Humidity,Sea Level PressureIn,VisibilityMPH,Wind Direction,Wind SpeedMPH,Gust SpeedMPH,PrecipitationIn,Events,Conditions,WindDirDegrees,DateUTC
1:53 AM,80.1,69.1,69,30.04,10.0,ENE,13.8,23.0,0.00,,Overcast,70,2012-10-14 05:53:00
2:53 AM,80.1,70.0,71,30.01,10.0,ENE,11.5,-,N/A,,Overcast,60,2012-10-14 06:53:00
3:19 AM,80.6,71.6,74,30.00,10.0,NE,13.8,23.0,N/A,,Overcast,50,2012-10-14 07:19:00
3:42 AM,80.6,69.8,70,30.00,10.0,ENE,16.1,24.2,N/A,,Overcast,60,2012-10-14 07:42:00
3:53 AM,80.1,70.0,71,30.01,10.0,NE,13.8,-,N/A,,Overcast,50,2012-10-14 07:53:00
4:53 AM,80.1,71.1,74,30.00,10.0,ENE,10.4,-,N/A,,Overcast,60,2012-10-14 08:53:00
5:53 AM,80.1,70.0,71,30.00,10.0,ENE,10.4,23.0,N/A,,Mostly Cloudy,60,2012-10-14 09:53:00
6:00 AM,80.6,69.8,70,29.99,10.0,ENE,12.7,-,N/A,,Mostly Cloudy,60,2012-10-14 10:00:00
6:22 AM,80.6,69.8,70,30.00,10.0,ENE,15.0,-,N/A,,Mostly Cloudy,60,2012-10-14 10:22:00
6:53 AM,80.1,69.1,69,30.01,10.0,ENE,15.0,21.9,N/A,,Partly Cloudy,60,2012-10-14 10:53:00
7:53 AM,81.0,71.1,72,30.02,10.0,ENE,16.1,25.3,N/A,,Scattered Clouds,70,2012-10-14 11:53:00
8:10 AM,80.6,71.6,74,30.01,10.0,ENE,16.1,24.2,N/A,,Overcast,60,2012-10-14 12:10:00
8:30 AM,80.6,71.6,74,30.02,10.0,ENE,19.6,25.3,N/A,,Overcast,60,2012-10-14 12:30:00
8:53 AM,82.0,71.1,69,30.03,10.0,ENE,15.0,25.3,N/A,,Overcast,60,2012-10-14 12:53:00
9:19 AM,82.4,71.6,70,30.02,10.0,ENE,16.1,27.6,N/A,,Mostly Cloudy,60,2012-10-14 13:19:00
9:40 AM,82.4,71.6,70,30.02,10.0,ENE,15.0,26.5,N/A,,Scattered Clouds,60,2012-10-14 13:40:00
9:53 AM,82.9,71.1,67,30.03,10.0,ENE,17.3,27.6,N/A,,Mostly Cloudy,60,2012-10-14 13:53:00
10:53 AM,82.9,72.0,69,30.03,10.0,ENE,21.9,28.8,N/A,,Mostly Cloudy,70,2012-10-14 14:53:00
11:43 AM,82.4,71.6,70,30.02,10.0,ENE,17.3,25.3,N/A,,Overcast,60,2012-10-14 15:43:00
11:53 AM,79.0,75.0,88,30.03,2.0,East,17.3,29.9,0.04,Rain,Rain,80,2012-10-14 15:53:00
12:10 PM,78.8,75.2,89,30.01,4.0,ENE,12.7,24.2,0.31,Rain,Light Rain,60,2012-10-14 16:10:00
12:53 PM,82.0,73.0,74,30.00,10.0,ENE,17.3,29.9,0.31,,Mostly Cloudy,60,2012-10-14 16:53:00
1:53 PM,84.0,73.9,72,29.98,10.0,ENE,20.7,27.6,0.00,,Scattered Clouds,60,2012-10-14 17:53:00
2:53 PM,84.9,73.9,69,29.96,10.0,ENE,19.6,27.6,N/A,,Scattered Clouds,60,2012-10-14 18:53:00
3:53 PM,84.2,73.4,70,29.95,10.0,ENE,17.3,26.5,N/A,,Scattered Clouds,70,2012-10-14 19:53:00
4:21 PM,84.2,73.4,70,29.94,10.0,ENE,13.8,21.9,N/A,,Overcast,60,2012-10-14 20:21:00
4:43 PM,82.4,73.4,74,29.95,10.0,ENE,15.0,24.2,0.00,Rain,Light Rain,60,2012-10-14 20:43:00
4:53 PM,82.9,73.9,74,29.95,10.0,ENE,17.3,25.3,0.00,,Mostly Cloudy,60,2012-10-14 20:53:00
5:53 PM,82.0,73.9,76,29.96,10.0,ENE,11.5,-,0.00,,Scattered Clouds,60,2012-10-14 21:53:00
6:53 PM,81.0,73.9,79,29.95,10.0,ENE,11.5,-,N/A,,Mostly Cloudy,60,2012-10-14 22:53:00
7:53 PM,81.0,73.9,79,29.95,10.0,ENE,5.8,-,N/A,,Partly Cloudy,70,2012-10-14 23:53:00
8:53 PM,81.0,73.9,79,29.96,10.0,ENE,8.1,-,N/A,,Scattered Clouds,60,2012-10-15 00:53:00
9:53 PM,80.1,73.9,81,29.96,10.0,ENE,8.1,-,N/A,,Clear,60,2012-10-15 01:53:00
10:53 PM,80.1,73.0,79,29.96,10.0,NE,8.1,-,N/A,,Clear,50,2012-10-15 02:53:00
11:53 PM,80.1,73.9,81,29.95,10.0,ENE,9.2,-,N/A,,Scattered Clouds,60,2012-10-15 03:53:00